Winston Salem, NC

7:18 PM EST on November 27, 2014 (GMT -0500)
Davidson County | Change Station
CLOSE
Current Station
Airport
Location: Lexington,
Elevation: 732 ft
Nearby Weather Stations

Elev 732 ft 35.78 °N, 80.30 °W | Updated 23 minutes ago

Clear
Clear
39 °F
Feels Like 39 °F
N
0
Wind Variable Wind from North

Today
High -- | Low -- °F
--% Chance of Precip.
Yesterday
High -- | Low -- °F
Precip. -- in
7:09 AM 5:07 PM
Waxing Crescent, 34% visible
Pressure 30.21 in
Visibility 10.0 miles
Clouds Scattered Clouds 7000 ft
Dew Point 26 °F
Humidity 61%
Rainfall 0.10 in
Snow Depth Not available.
UV 0 out of 12
Pollen .30 out of 12
Air Quality Not available.
Flu Activity Not available.
METAR KEXX 272355Z AUTO 00000KT 10SM SCT070 04/M03 A3021 RMK AO2 T00371031 10088 20037

More Conditions Fewer Conditions

Pressure 30.21 in
Visibility 10.0 miles
Clouds Scattered Clouds 7000 ft
Dew Point 26 °F
Humidity 61%
Rainfall 0.10 in
Snow Depth Not available.
UV 0 out of 12
Pollen .30 out of 12
Air Quality Not available.
Flu Activity Not available.
METAR KEXX 272355Z AUTO 00000KT 10SM SCT070 04/M03 A3021 RMK AO2 T00371031 10088 20037

More Conditions Fewer Conditions

10-Day Weather Forecast

Almanac

Astronomy

Nov. 27, 2014 Rise Set
Actual Time
Civil Twilight
Nautical Twilight
Astronomical Twilight
Moon
Length of Visible Light
Length of Day
Tomorrow will be .
, % of the Moon is Illuminated

Today's Extremes

State Highs State Lows

Community

WunderPhotos

Upload Photos

1,774,141 photos uploaded!

WunderBlogs® & News

Nearby

Air Quality

  Air Quality AQ Index Pollutant
Not available.

Snow Depth

Station Depth Elevation

Earthquake Activity

City Distance Mag. Time & Date
Minimum magnitude displayed is 2.5.

Coastal Water Temperatures

Place Temperature

Nearby Weather Stations